SCP
0 0 0 0 0 0 0 0 0 0 0 0 0 0 0 0 0 0 0 0 0 0 0 0 0 0 0 0 0 0 0 0 0 0 0 0 0 0 0 0 0 0 0
0 0 0 0 0 0 0 0 0 0 0 0 0 0 0 0 0 0 0 0 0 0 0 0 0 0 0 0 0 0 0 0 0 0 0 0 0 0 0 0 0 0 0
0 0 0 0 0 0 0 0 0 0 0 0 0 0 0 0 0 0 0 0 0 0 0 0 0 0 0 0 0 0 0 0 0 0 0 0 0 0 0 0 0 0 0
0 0 0 0 0 0 0 0 0 0 0 0 0 0 0 0 0 0 0 0 0 0 0 0 0 0 0 0 0 0 0 0 0 0 0 0 0 0 0 0 0 0 0
0 0 0 0 0 0 0 0 0 0 0 0 0 0 0 0 0 0 0 0 0 0 0 0 0 0 0 0 0 0 0 0 0 0 0 0 0 0 0 0 0 0 0
0 0 0 0 0 0 0 0 0 0 0 0 0 0 0 0 0 0 0 0 0 0 0 0 0 0 0 0 0 0 0 0 0 0 0 0 0 0 0 0 0 0 0
0 0 0 0 0 0 0 0 0 0 0 0 0 0 0 0 0 0 0 0 0 0 0 0 0 0 0 0 0 0 0 0 0 0 0 0 0 0 0 0 0 0 0
0 0 0 0 0 0 0 0 0 0 0 0 0 0 0 0 0 0 0 0 0 0 0 0 0 0 0 0 0 0 0 0 0 0 0 0 0 0 0 0 0 0 0
0 0 0 0 0 0 0 0 0 0 0 0 0 0 0 0 0 0 0 0 0 0 0 0 0 0 0 0 0 0 0 0 0 0 0 0 0 0 0 0 0 0 0
0 0 0 0 0 0 0 0 0 0 0 0 0 0 0 0 0 0 0 0 0 0 0 0 0 0 0 0 0 0 0 0 0 0 0 0 0 0 0 0 0 0 0
0 0 0 0 0 0 0 0 0 0 0 0 0 0 0 0 0 0 0 0 0 0 0 0 0 0 0 0 0 0 0 0 0 0 0 0 0 0 0 0 0 0 0
0 0 0 0 0 0 0 0 0 0 0 0 0 0 0 0 0 0 0 0 0 0 0 0 0 0 0 0 0 0 0 0 0 0 0 0 0 0 0 0 0 0 0
0 0 0 0 0 0 0 0 0 0 0 0 0 0 0 0 0 0 0 0 0 0 0 0 0 0 0 0 0 0 0 0 0 0 0 0 0 0 0 0 0 0 0
0 0 0 0 0 0 0 0 0 0 0 0 0 0 0 0 0 0 0 0 0 0 0 0 0 0 0 0 0 0 0 0 0 0 0 0 0 0 0 0 0 0 0
0 0 0 0 0 0 0 0 0 0 0 0 0 0 0 0 0 0 0 0 0 0 0 0 0 0 0 0 0 0 0 0 0 0 0 0 0 0 0 0 0 0 0
0 0 0 0 0 0 0 0 0 0 0 0 0 0 0 0 0 0 0 0 0 0 0 0 0 0 0 0 0 0 0 0 0 0 0 0 0 0 0 0 0 0 0
0 0 0 0 0 0 0 0 0 0 0 0 0 0 0 0 0 0 0 0 0 0 0 0 0 0 0 0 0 0 0 0 0 0 0 0 0 0 0 0 0 0 0
0 0 0 0 0 0 0 0 0 0 0 0 0 0 0 0 0 0 0 0 0 0 0 0 0 0 0 0 0 0 0 0 0 0 0 0 0 0 0 0 0 0 0
0 0 0 0 0 0 0 0 0 0 0 0 0 0 0 0 0 0 0 0 0 0 0 0 0 0 0 0 0 0 0 0 0 0 0 0 0 0 0 0 0 0 0
0 0 0 0 0 0 0 0 0 0 0 0 0 0 0 0 0 0 0 0 0 0 0 0 0 0 0 0 0 0 0 0 0 0 0 0 0 0 0 0 0 0 0
0 0 0 0 0 0 0 0 0 0 0 0 0 0 0 0 0 0 0 0 0 0 0 0 0 0 0 0 0 0 0 0 0 0 0 0 0 0 0 0 0 0 0
0 0 0 0 0 0 0 0 0 0 0 0 0 0 0 0 0 0 0 0 0 0 0 0 0 0 0 0 0 0 0 0 0 0 0 0 0 0 0 0 0 0 0
0 0 0 0 0 0 0 0 0 0 0 0 0 0 0 0 0 0 0 0 0 0 0 0 0 0 0 0 0 0 0 0 0 0 0 0 0 0 0 0 0 0 0
0 0 0 0 0 0 0 0 0 0 0 0 0 0 0 0 0 0 0 0 0 0 0 0 0 0 0 0 0 0 0 0 0 0 0 0 0 0 0 0 0 0 0
0 0 0 0 0 0 0 0 0 0 0 0 0 0 0 0 0 0 0 0 0 0 0 0 0 0 0 0 0 0 0 0 0 0 0 0 0 0 0 0 0 0 0
0 0 0 0 0 0 0 0 0 0 0 0 0 0 0 0 0 0 0 0 0 0 0 0 0 0 0 0 0 0 0 0 0 0 0 0 0 0 0 0 0 0 0
Wind_Speed
7 7 6 6 6 5 6 6 6 6 6 7 6 7 7 7 7 7 5 7 10 11 13 13 13 13 12 12 13 13 13 13 13 13 13 13 13 13 12 12 12 11 11
7 7 7 7 7 7 6 6 7 7 6 6 7 8 8 8 8 9 8 7 11 13 15 15 15 15 15 15 14 14 15 15 15 15 15 15 15 15 15 14 14 14 13
9 8 7 7 7 7 8 7 8 7 7 7 9 9 8 9 9 10 10 8 8 11 15 17 18 17 17 17 17 16 16 16 16 16 16 17 17 17 17 17 16 16 16
11 9 8 8 8 7 7 7 7 7 7 7 8 7 8 8 11 11 10 10 9 9 11 16 18 19 19 19 19 19 18 18 17 17 17 18 18 19 19 18 19 18 18
13 10 9 8 9 7 7 7 7 7 7 8 7 8 8 9 10 10 12 13 12 11 10 10 14 17 19 20 21 21 20 20 19 18 18 19 19 20 20 20 20 21 20
13 11 9 10 9 8 8 8 9 8 7 7 7 8 9 10 10 11 12 11 11 13 12 12 10 11 17 21 21 22 22 22 21 20 20 20 21 21 21 22 22 22 22
12 12 9 10 9 9 10 10 9 9 8 6 6 7 9 11 12 11 10 10 11 11 11 12 10 9 8 16 21 23 23 23 23 22 21 22 22 22 23 23 23 23 23
12 11 12 10 10 9 11 11 10 7 7 7 6 5 6 6 7 8 9 9 10 9 10 11 11 11 10 8 10 19 22 23 23 23 22 22 23 23 24 24 24 24 23
13 12 13 11 10 10 9 11 10 11 9 7 8 7 6 6 5 5 7 7 8 8 8 9 11 11 12 10 10 14 19 22 23 23 23 23 23 23 24 24 24 24 24
13 13 13 12 11 10 10 10 11 10 10 8 7 9 9 7 6 6 5 6 8 9 9 8 9 11 12 10 11 14 15 18 20 21 22 23 23 23 24 24 24 24 24
11 12 12 11 11 10 11 11 10 11 9 10 8 6 8 9 10 9 10 9 7 8 9 10 9 9 11 11 10 14 16 18 19 20 21 22 23 24 24 24 24 23 24
8 11 11 11 11 10 11 11 10 12 11 11 10 8 7 7 8 9 11 11 11 9 9 9 9 9 9 10 13 15 16 17 19 20 20 21 22 22 23 24 24 24 24
7 9 9 10 9 10 10 10 10 10 11 12 11 9 9 10 9 9 11 11 11 10 10 9 9 9 9 9 10 14 15 18 19 19 19 20 21 21 22 23 23 23 23
7 7 8 8 9 9 9 9 8 9 9 11 11 11 9 9 9 9 9 10 11 10 10 12 8 8 8 9 10 12 12 15 18 19 20 20 20 20 21 22 23 23 23
5 7 7 7 8 8 8 8 7 9 8 9 10 11 10 9 8 8 8 9 10 12 12 11 8 7 7 7 9 10 12 13 15 18 19 19 20 20 21 21 22 22 23
6 6 6 7 7 7 7 7 7 8 9 9 7 10 10 8 8 8 8 9 9 11 13 10 9 8 7 7 9 11 12 13 14 16 17 18 19 19 20 20 21 22 22
5 5 5 5 5 6 6 6 7 7 9 9 9 10 11 10 9 8 8 8 9 10 14 12 9 9 10 10 9 9 10 11 10 14 16 17 18 19 19 20 20 21 20
3 4 4 4 5 5 5 5 7 7 8 9 9 9 10 8 11 9 8 10 9 9 11 15 10 8 10 10 10 10 9 8 10 12 14 16 17 18 18 19 19 19 19
2 2 3 3 3 3 4 5 5 6 7 8 8 9 9 9 10 9 10 10 9 8 10 12 12 9 8 7 9 9 10 9 9 10 12 14 16 17 18 18 18 18 18
1 1 1 2 2 2 2 3 4 5 6 7 8 8 9 9 10 10 9 10 9 10 10 11 11 9 8 7 6 8 9 8 8 7 10 11 12 14 16 17 17 17 17
0 1 1 1 1 1 2 3 4 5 6 6 7 7 8 8 10 9 8 9 9 9 9 9 10 9 8 6 6 6 9 8 9 6 7 7 7 8 9 12 15 17 18
1 1 1 1 1 1 3 4 5 5 5 5 6 6 7 7 8 10 11 12 12 11 11 10 10 11 11 9 7 7 8 8 9 5 5 8 6 8 8 8 12 14 17
1 1 1 1 1 3 4 5 5 4 4 5 5 6 5 5 7 9 10 11 11 12 13 12 13 13 11 9 8 9 9 9 11 6 5 9 6 9 7 8 12 14 16
1 1 1 2 2 3 5 5 5 4 4 4 5 6 6 7 7 8 9 10 9 9 10 10 12 12 11 10 9 10 11 10 9 6 5 8 7 7 7 7 11 15 16
1 1 2 3 3 4 5 6 6 3 4 5 5 5 6 7 9 9 9 10 10 9 8 10 13 14 15 13 10 7 6 6 9 8 4 6 6 6 7 7 8 12 14
1 1 2 2 3 4 6 7 7 3 4 4 4 4 5 8 10 10 8 9 11 10 9 9 10 11 11 10 9 7 7 7 7 7 4 4 5 4 6 5 5 5 7
Wind_Direction
211 212 213 213 216 217 218 223 229 231 234 237 240 245 249 252 256 257 253 231 245 256 257 256 256 251 251 248 245 242 238 234 231 229 230 231 229 228 226 226 228 227 225
215 215 218 218 220 220 224 229 234 238 240 243 246 247 252 254 252 254 258 245 232 245 253 255 255 254 253 252 250 248 245 241 235 231 230 230 230 230 229 229 229 230 230
219 219 221 221 222 221 223 230 235 239 244 245 249 250 251 253 254 254 255 257 250 236 241 250 252 253 254 254 253 252 250 248 244 237 235 232 231 231 232 231 231 231 232
220 220 223 225 223 220 221 226 231 234 239 244 250 251 250 252 255 255 254 252 253 252 240 239 246 250 252 254 254 254 253 250 249 245 240 235 233 233 233 233 233 233 233
219 220 223 226 222 222 223 225 229 234 243 246 252 257 257 256 257 254 252 252 250 250 252 240 234 242 249 253 254 255 254 252 250 248 244 239 236 236 235 235 235 235 234
218 220 225 226 221 222 224 224 228 231 241 252 258 261 260 258 255 253 254 251 248 247 247 250 243 235 238 247 251 254 254 253 251 250 247 243 240 239 238 237 237 237 236
219 219 222 224 219 222 225 225 226 232 234 234 252 266 262 252 250 249 247 248 246 245 245 245 244 246 239 237 243 249 251 253 253 252 250 248 244 242 241 240 239 238 238
221 220 223 223 220 223 228 227 223 229 232 214 229 261 279 268 239 240 243 244 249 248 244 242 242 241 245 245 239 241 247 250 252 253 252 252 248 246 244 243 242 241 239
221 221 224 225 224 222 228 227 223 227 235 226 221 232 253 268 297 247 236 241 245 246 247 245 242 242 243 245 249 240 240 246 250 252 253 253 251 250 249 246 245 244 241
222 223 225 226 227 226 230 230 226 227 232 236 225 228 241 265 274 287 254 243 246 249 253 250 247 246 244 244 243 247 241 241 246 250 252 254 254 253 253 251 249 246 244
222 224 225 226 228 229 232 233 229 228 229 235 232 225 233 241 243 258 275 275 263 255 254 255 255 253 250 245 246 246 238 238 241 245 248 251 253 253 253 253 251 249 246
222 224 224 226 229 231 234 235 234 232 232 236 238 234 230 234 236 242 257 268 272 271 264 256 256 255 252 249 247 244 240 240 242 244 246 248 250 251 251 252 252 250 247
223 226 225 228 230 233 236 237 236 236 235 237 239 240 238 241 247 249 257 267 271 275 270 260 251 251 251 251 252 242 242 242 244 245 246 246 248 249 250 251 252 251 249
229 230 228 231 233 234 236 235 237 239 240 240 242 243 245 244 244 244 251 264 273 272 266 264 257 245 247 249 252 247 252 241 241 244 246 246 247 247 247 249 250 250 249
231 228 226 227 231 234 237 236 237 239 241 243 246 247 248 249 247 248 249 249 260 274 275 272 268 248 242 249 250 253 256 252 242 242 243 245 246 247 247 247 248 249 249
230 228 226 228 232 234 236 239 244 244 244 246 247 250 251 252 251 247 246 247 247 259 271 273 273 268 251 248 249 255 258 256 248 245 244 244 245 245 245 245 247 248 247
228 228 228 230 235 238 240 241 245 252 253 254 252 252 254 255 254 252 249 249 250 252 265 273 272 272 265 261 260 257 258 259 258 245 244 245 246 245 244 244 244 244 243
232 232 232 232 236 240 242 247 251 254 257 260 262 262 261 260 258 257 254 253 253 252 260 272 274 272 267 266 265 263 259 256 258 255 246 245 245 245 244 243 241 240 240
238 241 237 238 244 248 251 256 260 263 265 267 268 268 270 270 267 265 264 262 260 259 257 266 272 271 270 267 269 268 266 261 261 259 254 249 246 245 244 242 240 239 239
232 243 252 257 261 263 271 281 278 276 274 274 274 273 274 273 274 277 273 270 269 267 263 264 268 270 267 269 266 268 271 264 264 264 259 254 249 246 244 243 241 239 239
7 318 316 320 316 298 314 310 295 282 279 279 281 281 280 282 282 280 279 280 279 273 270 267 269 272 269 268 262 266 268 274 270 257 261 259 254 253 248 244 240 238 238
38 25 9 0 349 343 349 336 316 290 285 286 290 292 290 286 290 285 280 278 274 273 274 271 269 267 271 270 271 266 267 273 275 251 253 266 255 255 254 250 244 238 236
36 24 2 350 334 340 345 334 322 297 291 289 292 295 296 303 302 300 295 286 276 270 266 269 272 272 277 278 277 271 263 261 265 268 265 270 261 261 261 255 245 241 239
18 6 347 336 327 337 346 339 328 302 295 293 293 295 298 303 309 310 303 296 289 285 280 273 274 279 283 285 277 273 274 274 278 272 245 266 268 266 269 261 248 242 241
6 2 349 340 334 338 349 344 337 314 300 298 299 302 303 305 317 318 307 301 299 296 293 285 284 284 286 284 280 279 275 273 277 276 251 255 270 277 274 268 256 243 240
7 356 347 341 336 338 349 349 343 323 311 309 309 306 306 311 318 320 307 302 299 303 308 307 298 294 292 292 283 268 262 261 272 274 264 255 273 280 277 270 265 256 246